Location: Asi
(8.0667°N, 4.7833°E)
Time: 09:52:23
(UTC+00:00)

Daily predictions for brighter satellites

Satellite Brightness Start Highest point End
(mag) Time Altitude Azimuth Time Altitude Azimuth Time Altitude Azimuth
Atlas Centaur 2 4.4 17:31:16 10° W 17:38:29 32° NNW 17:45:51 10° NE
CZ-4B R/B 3.8 17:40:03 10° S 17:45:41 67° WSW 17:51:15 10° NNW
Cosmos 2369 4.3 17:41:29 10° SSE 17:46:38 35° ESE 17:51:46 10° NE
Orbus 7S 3.7 17:45:04 10° W 17:47:30 35° NNW 17:50:15 10° NE
Ariane H10 4.2 17:42:50 10° WSW 17:47:36 67° S 18:22:43 11° E
Ariane H10 4.2 17:42:50 10° WSW 17:47:37 67° S 18:22:44 11° E
Ariane H10 4.2 17:42:50 10° WSW 17:47:37 67° S 18:22:42 11° E
Aureole 3 3.4 17:43:22 10° S 17:48:04 83° E 17:51:46 10° N
Orbus 7S 3.9 17:43:30 10° WSW 17:48:25 47° NNW 17:51:01 10° NE
Delta 7925 Rocket 4.0 17:43:57 10° SW 17:50:19 55° SSE 17:55:11 11° ENE
Cosmos 1758 Rocket 3.5 17:51:31 10° N 17:55:52 82° E 18:00:10 10° S
Cosmos 1833 4.4 17:51:26 10° NNW 17:57:08 81° WSW 18:02:48 10° SSE
CZ-2C R/B 4.5 17:53:11 10° ESE 17:57:18 20° ENE 18:01:26 10° NNE
Cosmos 1315 Rocket 3.7 17:55:55 10° SSE 17:59:11 25° E 18:02:26 10° NE
Meteor 2-14 Rocket 4.4 17:53:35 10° N 17:59:40 72° E 18:05:43 10° S
Meteor 2-21 4.4 17:57:21 10° N 18:03:27 85° E 18:09:31 10° S
Cosmos 44 Rocket 3.5 17:59:05 10° S 18:03:30 45° ESE 18:07:58 10° NE
NOSS 3-3 (A) 4.1 17:58:23 10° SSW 18:03:49 66° WNW 18:09:26 10° NNE
NOSS 3-3 (C) 4.1 17:58:23 10° SSW 18:03:55 66° WNW 18:09:36 10° NNE
Meteor 2-10 Rocket 3.8 17:59:07 10° S 18:04:35 52° E 18:09:51 10° NNE
SL-8 R/B 3.7 18:00:00 10° NW 18:04:48 89° NE 18:09:35 10° SE
USA 229 DEB 4.0 17:58:40 10° NNW 18:06:21 75° ENE 18:14:08 10° SSE
USA 229 3.9 17:58:47 10° NNW 18:06:27 74° ENE 18:14:12 10° SSE
CZ-2D R/B 3.6 18:06:04 10° SSE 18:09:41 40° ENE 18:13:15 10° N
SWIFT 4.2 18:08:59 10° NW 18:11:54 18° N 18:13:45 14° NE
Cosmos 2058 Rocket 4.4 18:11:28 10° SSW 18:15:38 42° W 18:19:51 10° NNW
CZ-4 R/B 4.5 18:11:50 10° SSE 18:15:52 55° ENE 18:19:54 10° N
Hubble Space Telescope 3.0 18:18:24 10° N 18:19:31 11° NNE 18:19:50 11° NNE
NOSS 3-1 (A) 4.3 18:11:30 10° NNW 18:20:12 74° ENE 18:29:12 10° SSE
Cosmos 1697 Rocket 2.9 18:17:59 10° SSW 18:23:34 73° WNW 18:29:09 10° N
Helios 1A Rocket 2.8 18:23:13 10° SSE 18:27:19 67° ENE 18:31:25 10° N
CZ-2C R/B 3.2 18:25:43 21° NE 18:28:30 35° E 18:33:17 10° SSE
S3M 3.9 18:25:58 10° S 18:32:06 89° W 18:38:11 10° N
IRS-P2 Rocket 4.5 18:27:06 10° SSE 18:32:16 66° ENE 18:37:25 10° N
Meteor 2-16 Rocket 4.4 18:27:29 10° N 18:33:34 85° W 18:39:41 10° S
COSMOS 2487 3.6 18:31:29 10° NNW 18:34:43 43° W 18:37:59 10° S
Cosmos 1939 Rocket 3.9 18:31:07 10° S 18:35:04 48° W 18:38:57 10° NNW
Cosmos 1953 Rocket 4.1 18:33:19 10° NNW 18:37:41 61° W 18:42:06 10° S
ARIANE 5 R/B 3.7 18:34:44 10° WSW 18:40:07 45° S 18:41:04 35° SE
SEDSat Delta rocket 3.9 18:34:07 10° SW 18:40:49 76° SSE 18:43:22 38° ENE
Cosmos 1980 Rocket 2.1 18:39:08 10° SSW 18:44:48 81° ESE 18:48:31 22° NNE
MAQSAT/ARIANE V 3.0 18:33:39 10° WSW 18:45:46 43° S 18:46:56 34° SE
H-2A R/B 3.5 18:43:47 10° SSE 18:51:44 23° NNE 18:53:52 10° N
CSL-04 Debris 4.2 18:46:35 10° SSE 18:51:49 53° ENE 18:57:04 10° N
CZ-4 R/B 1.8 18:48:56 10° S 18:52:56 61° WSW 18:56:50 10° NNW
Timation 2 Rocket 4.3 18:48:13 10° N 18:54:40 45° ENE 18:54:44 45° ENE
Milstar 3 Cent rocket 4.0 18:40:59 10° WNW 18:55:26 56° SW 19:01:01 18° SE
ARIANE 5 DEB (SYLDA) 4.1 18:51:40 10° WSW 18:55:43 25° S 18:56:30 23° SSE
Fermi 4.0 18:52:26 10° WSW 18:56:14 60° NW 18:56:14 60° NW
YAOGAN 1 2.7 18:53:21 10° S 18:57:39 72° WSW 19:01:56 10° NNW
Spelda 3.3 18:55:37 10° WSW 19:01:19 40° S 19:01:19 40° S
Cosmos 2278 4.4 19:02:37 10° SSW 19:08:08 52° WNW 19:11:56 20° N
In-Cosmos 22 Rocket 4.3 19:02:49 10° N 19:08:14 74° W 19:13:48 10° S
Okean-O 4.3 19:07:19 10° SSW 19:11:18 33° W 19:15:18 10° NW
DMSP B5D2-2 4.1 19:15:33 74° SW 19:15:33 74° SW 19:20:18 10° SSW
ARIANE 5 DEB (SYLDA) 4.0 19:17:28 10° WSW 19:26:52 45° SSW 19:26:52 45° SSW
H-10 deb 4.4 19:59:52 10° W 20:08:42 38° W 20:08:42 38° W
